Regional Weather Roundup
Issued by NWS Wakefield, VA

Home | Current Version | Previous Version | Graphics & Text | Print | Product List | Glossary On
Versions: 1 2 3 4 5 6 7 8 9 10 11 12 13 14 15 16 17 18 19 20 21 22 23 24 25 26 27 28 29 30 31 32 33 34 35 36 37 38 39 40 41 42 43 44 45 46 47 48 49 50
260
ASUS41 KAKQ 261215
RWRAKQ

REGIONAL WEATHER ROUNDUP
NATIONAL WEATHER SERVICE WAKEFIELD VA
800 AM EDT TUE JUL 26 2016

Note: "fair" indicates few or no clouds below 12,000 feet with no
significant weather and/or obstructions to visibility. * = Denotes
station may not report precipitation (e.g., rain,snow,etc.),
thunder or fog.

VAZ042-051-052>054-056-261300-
NORTHERN VIRGINIA

CITY           SKY/WX    TMP DP  RH WIND       PRES   REMARKS
WASH NATIONAL  PTSUNNY   83  73  72 N7        29.96R
DULLES         FAIR      82  71  69 NW3       29.97R
FORT BELVOIR   FAIR      79  77  95 NW2       29.96R
QUANTICO       NOT AVBL
FREDERICKSBRG* FAIR      81  78  93 CALM      29.95S
STAFFORD*      FAIR      80  74  79 CALM      30.00S
WARRENTON      FAIR      81  71  71 CALM      29.97S
CULPEPER*      FAIR      79  77  94 CALM      29.98S
MANASSAS*      SUNNY     82  73  74 N3        29.97R
LEESBURG*      FAIR      81  73  78 CALM      29.99R
WINCHESTER     FAIR      79  73  83 NW3       30.00R
FRONT ROYAL*   FAIR      77  72  83 CALM      30.00R
LURAY*         FAIR      73  73 100 CALM      30.01R
$$

VAZ048-049-060>072-079>083-261300-
CENTRAL AND SOUTH CENTRAL VIRGINIA

CITY           SKY/WX    TMP DP  RH WIND       PRES   REMARKS
RICHMOND       PTSUNNY   81  73  76 SW7       29.96R
CHESTERFIELD*  FAIR      82  64  54 W6        29.98R
PETERSBURG*    FAIR      82  75  78 SW5       29.97S
HANOVER        FAIR      83  73  72 W5        29.98R
TAPPAHANNOCK*  FAIR      82  80  94 W5        29.96S
QUINTON*       FAIR      80  76  86 W3        29.95S
CHARLOTTSVILLE FAIR      81  72  74 CALM      29.98R
GORDONSVILLE*  FAIR      77  75  92 CALM      29.97S
ORANGE*          N/A     81  77  89 CALM      29.99R
LOUISA*        FAIR      84  79  84 CALM      29.97R HX  96
BUMPASS*       FAIR      79  77  94 CALM      29.97S
FARMVILLE*     FAIR      80  78  94 SW5       29.97S
CREWE*         FAIR      81  76  84 CALM      29.97S
FORT PICKETT*  FAIR      79  76  89 W7        29.98S
CHASE CITY*    FAIR      79  76  91 W5        30.00R
CLARKSVILLE*   FAIR      79  73  83 SW3       29.99R
SOUTH HILL*    FAIR      80  74  82 SW5       30.05R
LAWRENCEVILLE* FAIR      80  75  84 SW6       29.98S
EMPORIA*       FAIR      79  73  83 S5        29.98F
$$

VAZ088>098-261300-
SOUTHEAST VIRGINIA

CITY           SKY/WX    TMP DP  RH WIND       PRES   REMARKS
NORFOLK        FAIR      83  73  72 W9G17     29.95S
VIRGINIA BEACH FAIR      86  73  65 W14       29.94S
NORFOLK NAVAL  FAIR      83  73  72 SW8       29.96F
WEST POINT*    FAIR      82  75  78 W5        29.96S
SALUDA*        FAIR      82  77  86 W3        29.94S
NEWPORT NEWS   FAIR      82  76  81 W10       29.95S
LANGLEY AFB    MOSUNNY   82  76  82 W12       29.95R
FORT EUSTIS    FAIR      83  76  81 W5        29.94S
WILLIAMSBURG*  FAIR      82  75  78 W7        29.96F
HR EXEC AP*    FAIR      81  73  78 W8        29.98F
FRANKLIN*      FAIR      80  73  81 SW5       29.97S
US460-WAKEFLD  FAIR      81  74  79 SW6       29.96S
$$

VAZ020-022-025-037-045-261300-
WEST CENTRAL AND SOUTHWEST VIRGINIA

CITY           SKY/WX    TMP DP  RH WIND       PRES   REMARKS
STAUNTON*      FAIR      75  72  88 CALM      30.05R
WAYNESBORO*    FAIR      78  71  78 CALM      30.05R
HOT SPRINGS VA NOT AVBL
LYNCHBURG      FAIR      74  73  97 S5        30.03R
DANVILLE       FAIR      78  73  84 SW5       30.01R
SOUTH BOSTON*  FAIR      80  76  89 CALM      30.00R
MARTINSVILLE   FAIR      74  72  92 CALM      30.06R
ROANOKE        FAIR      78  72  81 CALM      30.06S
BLACKSBURG     FAIR      73  71  95 CALM      30.14S
DUBLIN*        FAIR      74  72  92 CALM      30.13R
MARION*        FAIR      71  68  91 W6        30.18S
HILLSVILLE*    PTSUNNY   69  69 100 SW3       30.14S
RICHLANDS*     FAIR      71  70  98 CALM      30.17S
WISE*          FAIR      72  70  94 CALM      30.18R
ABINGDON*      FAIR      73  71  94 CALM      30.15R
$$

MDZ021>025-VAZ099-100-261300-
SOUTHERN MARYLAND AND THE DELMARVA PENINSULA

CITY           SKY/WX    TMP DP  RH WIND       PRES   REMARKS
PATUXENT RIVER PTSUNNY   81  75  82 NW6       29.94R
BAY BRIDGE APT MOSUNNY   81  77  89 NW3       29.95R
LEONARDTOWN    PTSUNNY   79  75  89 CALM      29.96R
DOVER          PTSUNNY   78  77  96 NW7       29.92S
GEORGETOWN     MOSUNNY   76  73  91 CALM      29.94R
EASTON         PTSUNNY   77  77 100 N3        29.98R
CAMBRIDGE      MOSUNNY   79  73  83 N8        29.93R
SALISBURY      CLOUDY    78  75  90 NW5       29.93R
OCEAN CITY     MOSUNNY   79  75  87 CALM      29.93R
WALLOPS ISLAND FAIR      84  79  85 W7        29.93R HX  96
ACCOMACK*      FAIR      84  75  74 CALM      29.94R
$$

NCZ012>017-030>032-261300-
NORTH CENTRAL AND EASTERN NORTH CAROLINA

CITY           SKY/WX    TMP DP  RH WIND       PRES   REMARKS
ROANOKE RAPIDS FAIR      79  73  83 SW7       29.99S
RALEIGH        MOSUNNY   79  72  79 SW9       30.02R
ELIZABETH CITY SUNNY     81  73  76 SW14      29.97F
AHOSKIE*       SUNNY     78  74  86 CALM      29.98F
EDENTON*       SUNNY     82  73  72 W6G16     30.00R
CURRITUCK*     SUNNY     81  74  77 SW10      29.98S
KILL DEVIL HLS SUNNY     83  73  73 W6        29.98S
MANTEO           N/A     82  75  81 W14       29.99S
CAPE HATTERAS  MOSUNNY   80  75  84 W10G17    30.02R
TARBORO*       FAIR      80  73  80 SW5       30.00S
GOLDSBORO      MOSUNNY   79  78  95 SW10      30.01R
WASHINGTON     NOT AVBL
GREENVILLE     SUNNY     81  73  78 W10       30.02S
NEW BERN       CLOUDY    79  73  82 SW10      30.04R
WILMINGTON     SUNNY     80  73  79 W12       30.06R
$$

VAZ048-261300-
ELSEWHERE

CITY           SKY/WX    TMP DP  RH WIND       PRES   REMARKS
HARRISBURG PA  CLOUDY    73  73 100 NW6       29.96R FOG
BALTIMORE      PTSUNNY   79  71  76 NW3       29.95R
ANNAPOLIS      MOSUNNY   81  74  79 NW6       29.95R
ANDREWS AFB    FAIR      79  74  85 VRB1      29.96R
PHILADELPHIA   PTSUNNY   77  71  82 W3        29.94S
GREENSBORO     PTSUNNY   79  71  76 SW8       30.03S
ROCKY MOUNT    SUNNY     80  74  81 MISG      30.01R
$$

VAZ100-261300-
MARINE

STATION/POSITION TIME  TEMP    WIND        PRES    WAVE   SWELL
                       AIR SEA DIR/SP/G            HT/PER HT/PER
                 (UTC) (F)     (DEG/KT/KT) (MB)    (FT/S) (FT/S)
BRANDYWINE LGT   1100   78     330/  6/  7   N/A
CAPE MAY NJ      1100   80 72  290/  2/  6 1012.7R
LEWES DE         1100   77 74  320/  8/  9 1013.0R
OCEAN-CITY-INLET 1100   77 71   10/  1/  2 1013.5R
WACHAPREAGUE VA  1100   82 87  260/  4/  7 1013.3R
THOMAS POINT MD  1200   79 83  330/  5/  6 1015.6R
GOOSES REEF MD   1200   82 84  340/ 10/ 12 1014.9R   1/ 2
COVE POINT MD    1100   80     360/  9/ 11 1014.0R
SOLOMONS ISLAND  1100   79 84  340/  4/  6   N/A
BISHOPS HEAD MD  1100   81 85  340/  4/  5 1013.7R
PINEY POINT MD   1100          340/  8/  9   N/A
POTOMAC MD       1200   83 85  320/ 10/ 12 1012.8R   1/ 2
CAMBRIDGE MD     1100   79 86  360/  5/  6 1012.6R
LEWISETTA VA     1100   82 85  290/  6/  8 1013.2R
RAPPAHANNOCK LGT 1100          250/ 16/ 17 1014.0R
STINGRAY PT      1200   83 84  220/ 12/ 14 1014.0R   1/ 2
YORK RVR RNG VA  1100   82     260/ 17/ 20 1013.2R
YORKTOWN VA      1100   81 83  240/ 12/ 15 1013.4R
JAMESTOWN VA     1200   81 87  270/  4/  8   N/A     0
DOMINION TERM VA 1100   80     260/ 13/ 15 1014.3R
KIPTOPEKE VA     1100      81  260/ 16/ 19   N/A
CHES BAY BRIDGE  1100   81 79  230/ 17/ 20 1013.8R
CAPE HENRY VA    1100   81     240/ 12/ 16   N/A
WILLOUBY STN VA  1100   81     250/ 17/ 19   N/A
CAPE HENRY BUOY  1112      74                N/A     2/ 4
1ST LANDING BUOY 1200   81 79  230/ 12/ 16 1013.8F
CAPE CHARLES BUO 1126      64                N/A     2/ 9
OFFSHORE WE BUOY 1121      81                N/A     3/ 5
64NM E OF VA BCH 1150   81 81  240/ 17/ 19 1014.0R   4/ 6
DUCK PIER NC     1100   81 62  230/ 14/ 21 1014.4R
44100 DUCK FRF   1105      73                N/A     2/ 4
44056 DUCK FRF   1111      64                N/A     1/ 9
OREGON INLET NC  1100   81 85  230/ 18/ 20 1015.3R
HATTERAS NC      1100   80 83  230/ 10/ 14 1015.9R
DIAMOND SHLS NC  1150   83 84  250/ 17/ 19 1016.5R   4/ 6
CAPE LOOKOUT NC  1200   83     250/ 14/ 19 1017.0R
$$




USA.gov is the U.S. government's official web portal to all federal, state and local government web resources and services.